Tracking 21612 objects as of 19-Oct-2020
HD Live streaming from Space Station
objects crossing your sky now

CZ-4B DEB

Track CZ-4B DEB now!
10-day predictions


NORAD ID: 43431
Int'l Code: 2017-034G
Perigee: 549.0 km
Apogee: 875.8 km
Inclination: 43.1 °
Period: 98.9 minutes
Semi major axis: 7083 km
RCS: Unknown
Launch date: June 15, 2017
Source: People's Republic of China (PRC)
Launch site: Jiuquan Satellite Launch Center, China (JSC)

Note: This is SATELLITE DEBRIS
aabbcc
Your satellite tracking list
Your tracking list is empty




NASA's NSSDC Master Catalog

Two Line Element Set (TLE):
1 43431U 17034G   20293.25808415  .00000678  00000-0  13349-3 0  9993
2 43431  43.1024 254.5373 0230643 308.7171  49.3236 14.56258536175718
Source of the keplerian elements: AFSPC